SCP
0 0 0 0 0 0 0 0 0 0 0 0 0 0 0 0 0 0 0 0 0 0 0 0 0 0 0 0 0 0 0 0 0 0 0 0 0 0 0 0 0 0 0
0 0 0 0 0 0 0 0 0 0 0 0 0 0 0 0 0 0 0 0 0 0 0 0 0 0 0 0 0 0 0 0 0 0 0 0 0 0 0 0 0 0 0
0 0 0 0 0 0 0 0 0 0 0 0 0 0 0 0 0 0 0 0 0 0 0 0 0 0 0 0 0 0 0 0 0 0 0 0 0 0 0 0 0 0 0
0 0 0 0 0 0 0 0 0 0 0 0 0 0 0 0 0 0 0 0 0 0 0 0 0 0 0 0 0 0 0 0 0 0 0 0 0 0 0 0 0 0 0
0 0 0 0 0 0 0 0 0 0 0 0 0 0 0 0 0 0 0 0 0 0 0 0 0 0 0 0 0 0 0 0 0 0 0 0 0 0 0 0 0 0 0
0 0 0 0 0 0 0 0 0 0 0 0 0 0 0 0 0 0 0 0 0 0 0 0 0 0 0 0 0 0 0 0 0 0 0 0 0 0 0 0 0 0 0
0 0 0 0 0 0 0 0 0 0 0 0 0 0 0 0 0 0 0 0 0 0 0 0 0 0 0 0 0 0 0 0 0 0 0 0 0 0 0 0 0 0 0
0 0 0 0 0 0 0 0 0 0 0 0 0 0 0 0 0 0 0 0 0 0 0 0 0 0 0 0 0 0 0 0 0 0 0 0 0 0 0 0 0 0 0
0 0 0 0 0 0 0 0 0 0 0 0 0 0 0 0 0 0 0 0 0 0 0 0 0 0 0 0 0 0 0 0 0 0 0 0 0 0 0 0 0 0 0
0 0 0 0 0 0 0 0 0 0 0 0 0 0 0 0 0 0 0 0 0 0 0 0 0 0 0 0 0 0 0 0 0 0 0 0 0 0 0 0 0 0 0
0 0 0 0 0 0 0 0 0 0 0 0 0 0 0 0 0 0 0 0 0 0 0 0 0 0 0 0 0 0 0 0 0 0 0 0 0 0 0 0 0 0 0
0 0 0 0 0 0 0 0 0 0 0 0 0 0 0 0 0 0 0 0 0 0 0 0 0 0 0 0 0 0 0 0 0 0 0 0 0 0 0 0 0 0 0
0 0 0 0 0 0 0 0 0 0 0 0 0 0 0 0 0 0 0 0 0 0 0 0 0 0 0 0 0 0 0 0 0 0 0 0 0 0 0 0 0 0 0
0 0 0 0 0 0 0 0 0 0 0 0 0 0 0 0 0 0 0 0 0 0 0 0 0 0 0 0 0 0 0 0 0 0 0 0 0 0 0 -0 -0 0 0
0 0 0 0 0 0 0 0 0 0 0 0 0 0 0 0 0 0 0 0 0 0 0 0 0 0 0 0 0 0 0 0 0 0 0 0 0 0 0 -0 -0 0 0
0 0 0 0 0 0 0 0 0 0 0 0 0 0 0 0 0 0 0 0 0 0 0 0 0 0 0 0 0 0 0 0 0 0 0 0 0 0 -0 -0 -0 -0 -0
0 0 0 0 0 0 0 0 0 0 0 0 0 0 0 0 0 0 0 0 0 0 0 0 0 0 0 0 0 0 0 0 0 0 0 0 0 0 -0 -0 -0 -0 -0
0 0 0 0 0 0 0 0 0 0 0 0 0 0 0 0 0 0 0 0 0 0 0 0 0 0 0 0 0 0 0 0 0 0 0 0 0 0 -0 -0 -0 -0 -0
0 0 0 0 0 0 0 0 0 0 0 0 0 0 0 0 0 0 0 0 0 0 0 0 0 0 0 0 0 0 0 0 0 0 0 0 0 0 0 -0 -0 -0 -0
0 0 0 0 0 0 0 0 0 0 0 0 0 0 0 0 0 0 0 0 0 0 0 0 0 0 0 0 0 -0 0 -0 0 0 0 0 0 0 0 0 -0 -0 -0
0 0 0 0 0 0 0 0 0 0 0 0 0 0 0 0 0 0 0 0 0 0 0 0 0 0 0 0 0 -0 -0 0 0 0 0 0 0 -0 -0 0 -0 -0 -0
0 0 0 0 0 0 0 0 0 0 0 0 0 0 0 0 0 0 0 0 0 0 0 0 0 0 0 0 -0 -0 -0 0 0 0 0 0 0 -0 -0 -0 0 0 0
0 0 0 0 0 0 0 0 0 0 0 0 0 0 0 0 0 0 0 0 0 0 0 0 0 0 0 0 0 -0 -0 0 -0 -0 -0 0 -0 -0 -0 0 0 0 0
0 0 0 0 0 0 0 0 0 0 0 0 0 0 0 0 0 0 0 0 0 0 0 0 0 0 0 0 0 0 0 0 -0 0 -0 -0 -0 -0 -0 -0 0 0 0
0 0 0 0 0 0 0 0 0 0 0 0 0 0 0 0 0 0 0 0 0 0 0 0 0 0 0 0 0 0 0 -0 -0 0 -0 -0 -0 -0 -0 -0 0 0 0
0 0 0 0 0 0 0 0 0 0 0 0 0 0 0 0 0 0 0 0 0 0 0 0 0 0 0 0 0 0 -0 0 0 0 0 -0 -0 -0 -0 -0 -0 0 0
Wind_Speed_500mb
89 85 85 82 84 91 92 87 80 73 68 62 54 51 50 51 50 52 54 54 58 59 61 66 68 67 75 80 82 84 84 76 87 135 140 146 136 111 95 96 107 109 119
93 90 88 87 86 90 91 87 78 72 65 57 53 52 51 50 51 52 52 55 58 61 63 65 69 73 79 83 85 89 86 82 80 94 129 137 133 119 102 99 105 108 116
96 94 94 93 91 92 90 85 78 70 63 58 55 52 49 48 49 51 53 57 60 62 63 69 74 77 82 84 86 85 85 83 82 89 113 114 122 113 109 101 113 111 102
95 96 97 98 94 89 84 81 75 69 64 60 54 51 48 46 49 50 53 59 60 63 68 73 77 79 81 81 80 81 86 88 90 95 102 106 102 101 96 95 105 93 97
93 96 98 96 91 82 80 81 76 69 64 59 54 50 46 46 48 46 52 57 60 65 71 75 77 76 76 68 75 85 88 91 90 92 102 99 97 90 88 89 96 93 106
92 96 96 94 90 81 81 83 78 72 65 59 52 48 45 46 42 45 50 56 61 67 73 74 73 76 77 69 71 77 80 92 99 97 101 101 99 97 95 96 97 90 94
89 92 95 95 89 81 82 84 79 71 64 56 51 45 43 41 39 45 50 54 59 65 67 71 76 78 80 86 87 85 92 90 91 99 111 104 104 99 98 99 95 93 100
90 93 93 93 86 82 85 86 80 70 59 51 46 43 39 38 39 46 50 52 57 60 64 70 76 83 81 78 88 97 100 96 92 93 107 115 108 100 106 106 107 105 108
88 90 91 90 84 83 90 86 75 66 56 50 47 41 38 34 40 43 44 47 53 60 67 69 74 85 77 70 81 93 105 106 101 90 95 101 103 101 95 100 106 99 101
85 90 90 89 85 87 89 82 74 65 55 52 44 41 35 31 34 37 38 40 52 63 67 77 79 67 69 76 85 94 102 95 100 103 110 100 85 95 90 88 99 104 84
79 83 87 86 84 84 87 82 71 63 57 47 46 37 31 28 29 30 27 34 47 58 73 79 75 65 77 77 69 81 82 85 92 96 89 77 85 91 88 95 96 96 104
76 81 83 85 87 91 90 78 70 59 49 49 41 33 25 22 23 24 24 29 38 54 67 75 72 76 70 69 64 67 71 76 79 73 67 73 79 80 84 87 93 97 103
77 82 83 83 92 93 86 79 68 55 55 50 40 29 20 19 16 15 23 29 38 46 59 56 68 69 69 70 62 63 65 60 70 72 74 76 77 70 82 88 81 92 103
85 83 83 89 100 97 86 75 63 62 56 47 38 27 21 14 11 18 30 37 45 51 53 60 59 61 64 66 71 70 76 60 69 72 74 79 76 78 85 84 77 84 84
86 84 86 99 103 95 81 70 70 61 53 45 34 28 18 8 7 14 21 32 39 39 47 54 61 66 73 76 76 74 81 76 71 79 78 80 74 70 73 68 67 78 81
93 95 102 113 111 96 83 75 63 54 49 42 34 24 14 6 2 8 16 23 30 33 45 56 62 68 71 76 80 86 84 90 78 87 83 81 77 73 80 79 72 64 69
100 100 112 117 108 96 89 79 71 55 49 41 35 25 14 7 2 7 15 20 27 33 47 53 63 70 74 76 80 86 87 94 82 91 92 84 75 84 74 73 70 70 74
99 103 121 119 106 98 86 77 68 63 59 46 36 27 19 10 4 5 13 17 20 33 45 54 61 66 74 79 83 88 93 96 91 103 92 84 86 78 75 72 69 68 71
103 111 127 115 102 91 83 72 67 58 50 44 38 30 22 15 8 3 10 19 29 38 44 51 55 62 70 79 86 91 93 89 97 103 96 94 87 80 77 73 71 70 71
101 112 120 111 100 90 76 75 68 60 53 45 39 30 25 18 10 4 7 17 25 33 41 49 55 60 68 77 84 92 96 90 100 104 107 99 90 82 77 76 72 72 73
105 114 111 101 91 79 76 71 67 61 53 46 40 34 27 21 12 1 10 19 27 35 39 45 51 59 66 75 83 89 95 95 99 109 116 107 95 87 81 75 74 71 72
105 106 99 92 80 77 72 68 62 57 52 47 43 36 28 20 11 3 11 17 25 31 36 43 48 56 64 74 82 89 94 96 100 119 124 114 98 93 89 86 80 67 62
105 102 89 79 77 73 70 62 60 55 49 44 37 32 27 18 10 5 11 18 23 27 31 39 47 52 58 67 72 81 86 97 92 127 125 118 107 103 97 93 81 69 60
98 89 82 78 71 69 63 63 56 50 44 39 35 30 22 13 7 6 12 18 22 25 31 37 45 53 55 61 68 74 79 92 93 122 118 118 113 109 101 97 86 70 53
88 80 75 69 69 65 62 55 50 43 39 36 32 26 18 11 4 5 12 18 23 27 30 36 43 50 55 54 64 71 79 89 96 114 118 119 117 113 105 102 93 72 53
77 69 64 66 63 61 58 50 42 38 36 33 28 20 14 7 1 5 12 19 26 29 32 35 41 46 52 53 62 69 80 85 91 112 116 116 119 119 116 112 103 87 66
Wind_Direction_500mb
232 235 237 241 240 238 236 234 233 233 235 239 246 254 261 269 277 286 291 292 293 296 296 296 297 298 294 291 289 285 277 264 262 283 287 293 291 289 287 283 282 282 278
235 235 236 240 241 237 234 232 231 231 234 239 247 255 264 272 279 286 289 294 295 296 296 297 300 299 297 297 296 294 289 277 266 269 286 291 292 292 290 287 283 281 279
236 235 236 237 240 238 233 229 228 228 232 239 246 255 265 273 282 287 293 294 294 295 299 300 303 302 301 302 298 290 286 279 274 271 275 281 286 289 290 286 287 289 290
236 236 236 237 239 237 233 227 226 227 232 239 248 256 261 272 281 288 292 294 296 301 301 302 304 304 304 303 294 289 287 283 279 276 273 277 279 283 283 283 285 286 296
237 237 237 236 238 235 230 224 223 226 232 239 245 253 262 272 281 289 292 294 298 300 303 306 307 306 307 293 290 289 288 283 280 280 277 275 275 277 275 281 280 285 285
239 237 234 234 235 232 226 221 221 224 230 238 245 253 261 273 285 293 293 296 300 302 306 310 311 312 310 296 292 288 284 285 284 281 281 279 277 270 272 274 276 278 283
236 234 234 233 233 230 224 218 220 224 230 236 244 252 263 276 288 290 293 297 300 305 311 315 319 316 310 308 302 294 290 285 280 280 278 278 279 275 276 275 274 276 278
234 233 231 232 229 226 218 215 217 222 229 237 246 255 267 278 285 289 297 299 304 310 317 322 320 317 311 305 300 296 293 293 290 286 278 274 275 279 270 273 275 276 277
234 232 231 229 225 221 214 212 215 221 228 235 243 254 266 277 285 294 296 303 312 318 321 321 318 312 310 308 303 299 299 296 295 289 282 277 272 270 268 271 269 269 268
235 232 228 224 221 217 211 211 214 218 223 234 242 252 262 273 285 290 303 311 315 319 321 316 318 317 312 311 305 301 300 300 301 301 288 276 275 268 267 262 267 268 270
231 229 226 222 217 210 208 209 213 217 222 228 238 245 257 270 281 297 306 312 316 319 311 317 326 321 317 316 311 303 298 303 303 296 301 286 279 275 273 267 267 265 265
231 228 224 219 212 203 204 208 210 213 221 231 233 238 250 270 284 298 310 313 320 314 315 320 329 321 321 322 315 321 308 304 306 305 303 295 285 276 272 275 269 270 268
231 227 221 214 205 201 203 206 206 213 222 224 227 230 239 256 274 307 331 328 326 320 316 324 322 328 332 335 335 326 321 320 324 317 312 301 292 292 281 276 277 271 270
234 224 216 208 201 198 198 204 208 213 217 220 224 220 229 247 288 334 349 338 333 328 331 327 332 337 344 344 348 346 341 331 325 322 313 311 296 296 283 270 277 273 268
233 225 212 203 200 195 197 201 211 214 213 213 212 218 220 237 332 350 342 338 329 336 325 335 346 351 351 351 351 350 347 342 328 327 320 315 312 303 298 289 274 276 261
230 220 210 199 196 193 194 195 204 206 205 201 202 206 211 227 11 356 353 341 343 340 348 353 358 359 356 354 353 350 348 343 335 328 323 317 312 305 302 296 278 272 267
227 221 207 197 193 191 191 195 191 192 191 193 188 190 190 194 101 15 5 2 350 356 360 4 5 2 359 359 357 354 343 343 337 328 323 318 313 308 302 297 288 277 267
221 216 207 195 193 191 192 194 198 197 186 182 181 181 181 178 146 17 7 354 351 9 10 8 5 0 1 1 360 356 352 347 337 331 327 322 318 312 306 299 293 285 272
215 209 199 194 193 189 190 191 192 189 183 180 175 180 175 167 152 59 347 345 4 10 9 9 3 358 360 2 3 1 353 346 336 335 331 327 323 318 310 303 297 289 278
207 201 194 190 188 190 188 188 186 184 182 178 175 175 172 168 155 194 338 359 4 7 6 5 3 359 358 359 1 0 355 347 338 339 335 331 327 322 313 308 300 291 282
196 195 193 188 186 183 184 184 183 179 178 175 173 174 172 169 156 112 13 9 7 5 3 0 1 1 359 358 359 357 357 348 341 341 338 335 332 326 322 314 304 295 284
190 188 185 184 178 179 181 181 178 178 175 174 170 168 166 161 144 78 18 11 9 358 359 357 357 1 2 1 0 359 357 351 344 343 343 343 337 334 331 324 318 307 292
186 181 177 173 176 176 176 175 178 177 174 172 165 166 170 154 135 58 3 6 359 352 356 359 356 357 2 3 4 4 359 358 346 347 352 351 343 341 338 333 330 320 302
179 174 169 172 173 175 174 175 175 173 170 169 168 171 165 140 115 27 351 353 345 345 355 358 358 360 360 3 4 7 6 8 350 351 359 359 352 352 346 344 341 332 314
170 167 167 172 174 171 173 173 171 168 170 172 174 169 152 145 118 352 341 339 333 341 352 354 357 360 2 3 4 6 12 8 352 357 1 5 5 3 355 354 356 352 347
160 164 168 172 170 172 172 169 167 171 176 178 172 161 157 154 141 312 324 329 329 340 349 352 354 359 1 1 6 7 15 3 353 359 3 6 10 12 7 5 9 8 6
Wind_Speed_850mb
89 85 85 82 84 91 92 87 80 73 68 62 54 51 50 51 50 52 54 54 58 59 61 66 68 67 75 80 82 84 84 76 87 135 140 146 136 111 95 96 107 109 119
93 90 88 87 86 90 91 87 78 72 65 57 53 52 51 50 51 52 52 55 58 61 63 65 69 73 79 83 85 89 86 82 80 94 129 137 133 119 102 99 105 108 116
96 94 94 93 91 92 90 85 78 70 63 58 55 52 49 48 49 51 53 57 60 62 63 69 74 77 82 84 86 85 85 83 82 89 113 114 122 113 109 101 113 111 102
95 96 97 98 94 89 84 81 75 69 64 60 54 51 48 46 49 50 53 59 60 63 68 73 77 79 81 81 80 81 86 88 90 95 102 106 102 101 96 95 105 93 97
93 96 98 96 91 82 80 81 76 69 64 59 54 50 46 46 48 46 52 57 60 65 71 75 77 76 76 68 75 85 88 91 90 92 102 99 97 90 88 89 96 93 106
92 96 96 94 90 81 81 83 78 72 65 59 52 48 45 46 42 45 50 56 61 67 73 74 73 76 77 69 71 77 80 92 99 97 101 101 99 97 95 96 97 90 94
89 92 95 95 89 81 82 84 79 71 64 56 51 45 43 41 39 45 50 54 59 65 67 71 76 78 80 86 87 85 92 90 91 99 111 104 104 99 98 99 95 93 100
90 93 93 93 86 82 85 86 80 70 59 51 46 43 39 38 39 46 50 52 57 60 64 70 76 83 81 78 88 97 100 96 92 93 107 115 108 100 106 106 107 105 108
88 90 91 90 84 83 90 86 75 66 56 50 47 41 38 34 40 43 44 47 53 60 67 69 74 85 77 70 81 93 105 106 101 90 95 101 103 101 95 100 106 99 101
85 90 90 89 85 87 89 82 74 65 55 52 44 41 35 31 34 37 38 40 52 63 67 77 79 67 69 76 85 94 102 95 100 103 110 100 85 95 90 88 99 104 84
79 83 87 86 84 84 87 82 71 63 57 47 46 37 31 28 29 30 27 34 47 58 73 79 75 65 77 77 69 81 82 85 92 96 89 77 85 91 88 95 96 96 104
76 81 83 85 87 91 90 78 70 59 49 49 41 33 25 22 23 24 24 29 38 54 67 75 72 76 70 69 64 67 71 76 79 73 67 73 79 80 84 87 93 97 103
77 82 83 83 92 93 86 79 68 55 55 50 40 29 20 19 16 15 23 29 38 46 59 56 68 69 69 70 62 63 65 60 70 72 74 76 77 70 82 88 81 92 103
85 83 83 89 100 97 86 75 63 62 56 47 38 27 21 14 11 18 30 37 45 51 53 60 59 61 64 66 71 70 76 60 69 72 74 79 76 78 85 84 77 84 84
86 84 86 99 103 95 81 70 70 61 53 45 34 28 18 8 7 14 21 32 39 39 47 54 61 66 73 76 76 74 81 76 71 79 78 80 74 70 73 68 67 78 81
93 95 102 113 111 96 83 75 63 54 49 42 34 24 14 6 2 8 16 23 30 33 45 56 62 68 71 76 80 86 84 90 78 87 83 81 77 73 80 79 72 64 69
100 100 112 117 108 96 89 79 71 55 49 41 35 25 14 7 2 7 15 20 27 33 47 53 63 70 74 76 80 86 87 94 82 91 92 84 75 84 74 73 70 70 74
99 103 121 119 106 98 86 77 68 63 59 46 36 27 19 10 4 5 13 17 20 33 45 54 61 66 74 79 83 88 93 96 91 103 92 84 86 78 75 72 69 68 71
103 111 127 115 102 91 83 72 67 58 50 44 38 30 22 15 8 3 10 19 29 38 44 51 55 62 70 79 86 91 93 89 97 103 96 94 87 80 77 73 71 70 71
101 112 120 111 100 90 76 75 68 60 53 45 39 30 25 18 10 4 7 17 25 33 41 49 55 60 68 77 84 92 96 90 100 104 107 99 90 82 77 76 72 72 73
105 114 111 101 91 79 76 71 67 61 53 46 40 34 27 21 12 1 10 19 27 35 39 45 51 59 66 75 83 89 95 95 99 109 116 107 95 87 81 75 74 71 72
105 106 99 92 80 77 72 68 62 57 52 47 43 36 28 20 11 3 11 17 25 31 36 43 48 56 64 74 82 89 94 96 100 119 124 114 98 93 89 86 80 67 62
105 102 89 79 77 73 70 62 60 55 49 44 37 32 27 18 10 5 11 18 23 27 31 39 47 52 58 67 72 81 86 97 92 127 125 118 107 103 97 93 81 69 60
98 89 82 78 71 69 63 63 56 50 44 39 35 30 22 13 7 6 12 18 22 25 31 37 45 53 55 61 68 74 79 92 93 122 118 118 113 109 101 97 86 70 53
88 80 75 69 69 65 62 55 50 43 39 36 32 26 18 11 4 5 12 18 23 27 30 36 43 50 55 54 64 71 79 89 96 114 118 119 117 113 105 102 93 72 53
77 69 64 66 63 61 58 50 42 38 36 33 28 20 14 7 1 5 12 19 26 29 32 35 41 46 52 53 62 69 80 85 91 112 116 116 119 119 116 112 103 87 66
Wind_Direction_850mb
232 235 237 241 240 238 236 234 233 233 235 239 246 254 261 269 277 286 291 292 293 296 296 296 297 298 294 291 289 285 277 264 262 283 287 293 291 289 287 283 282 282 278
235 235 236 240 241 237 234 232 231 231 234 239 247 255 264 272 279 286 289 294 295 296 296 297 300 299 297 297 296 294 289 277 266 269 286 291 292 292 290 287 283 281 279
236 235 236 237 240 238 233 229 228 228 232 239 246 255 265 273 282 287 293 294 294 295 299 300 303 302 301 302 298 290 286 279 274 271 275 281 286 289 290 286 287 289 290
236 236 236 237 239 237 233 227 226 227 232 239 248 256 261 272 281 288 292 294 296 301 301 302 304 304 304 303 294 289 287 283 279 276 273 277 279 283 283 283 285 286 296
237 237 237 236 238 235 230 224 223 226 232 239 245 253 262 272 281 289 292 294 298 300 303 306 307 306 307 293 290 289 288 283 280 280 277 275 275 277 275 281 280 285 285
239 237 234 234 235 232 226 221 221 224 230 238 245 253 261 273 285 293 293 296 300 302 306 310 311 312 310 296 292 288 284 285 284 281 281 279 277 270 272 274 276 278 283
236 234 234 233 233 230 224 218 220 224 230 236 244 252 263 276 288 290 293 297 300 305 311 315 319 316 310 308 302 294 290 285 280 280 278 278 279 275 276 275 274 276 278
234 233 231 232 229 226 218 215 217 222 229 237 246 255 267 278 285 289 297 299 304 310 317 322 320 317 311 305 300 296 293 293 290 286 278 274 275 279 270 273 275 276 277
234 232 231 229 225 221 214 212 215 221 228 235 243 254 266 277 285 294 296 303 312 318 321 321 318 312 310 308 303 299 299 296 295 289 282 277 272 270 268 271 269 269 268
235 232 228 224 221 217 211 211 214 218 223 234 242 252 262 273 285 290 303 311 315 319 321 316 318 317 312 311 305 301 300 300 301 301 288 276 275 268 267 262 267 268 270
231 229 226 222 217 210 208 209 213 217 222 228 238 245 257 270 281 297 306 312 316 319 311 317 326 321 317 316 311 303 298 303 303 296 301 286 279 275 273 267 267 265 265
231 228 224 219 212 203 204 208 210 213 221 231 233 238 250 270 284 298 310 313 320 314 315 320 329 321 321 322 315 321 308 304 306 305 303 295 285 276 272 275 269 270 268
231 227 221 214 205 201 203 206 206 213 222 224 227 230 239 256 274 307 331 328 326 320 316 324 322 328 332 335 335 326 321 320 324 317 312 301 292 292 281 276 277 271 270
234 224 216 208 201 198 198 204 208 213 217 220 224 220 229 247 288 334 349 338 333 328 331 327 332 337 344 344 348 346 341 331 325 322 313 311 296 296 283 270 277 273 268
233 225 212 203 200 195 197 201 211 214 213 213 212 218 220 237 332 350 342 338 329 336 325 335 346 351 351 351 351 350 347 342 328 327 320 315 312 303 298 289 274 276 261
230 220 210 199 196 193 194 195 204 206 205 201 202 206 211 227 11 356 353 341 343 340 348 353 358 359 356 354 353 350 348 343 335 328 323 317 312 305 302 296 278 272 267
227 221 207 197 193 191 191 195 191 192 191 193 188 190 190 194 101 15 5 2 350 356 360 4 5 2 359 359 357 354 343 343 337 328 323 318 313 308 302 297 288 277 267
221 216 207 195 193 191 192 194 198 197 186 182 181 181 181 178 146 17 7 354 351 9 10 8 5 0 1 1 360 356 352 347 337 331 327 322 318 312 306 299 293 285 272
215 209 199 194 193 189 190 191 192 189 183 180 175 180 175 167 152 59 347 345 4 10 9 9 3 358 360 2 3 1 353 346 336 335 331 327 323 318 310 303 297 289 278
207 201 194 190 188 190 188 188 186 184 182 178 175 175 172 168 155 194 338 359 4 7 6 5 3 359 358 359 1 0 355 347 338 339 335 331 327 322 313 308 300 291 282
196 195 193 188 186 183 184 184 183 179 178 175 173 174 172 169 156 112 13 9 7 5 3 0 1 1 359 358 359 357 357 348 341 341 338 335 332 326 322 314 304 295 284
190 188 185 184 178 179 181 181 178 178 175 174 170 168 166 161 144 78 18 11 9 358 359 357 357 1 2 1 0 359 357 351 344 343 343 343 337 334 331 324 318 307 292
186 181 177 173 176 176 176 175 178 177 174 172 165 166 170 154 135 58 3 6 359 352 356 359 356 357 2 3 4 4 359 358 346 347 352 351 343 341 338 333 330 320 302
179 174 169 172 173 175 174 175 175 173 170 169 168 171 165 140 115 27 351 353 345 345 355 358 358 360 360 3 4 7 6 8 350 351 359 359 352 352 346 344 341 332 314
170 167 167 172 174 171 173 173 171 168 170 172 174 169 152 145 118 352 341 339 333 341 352 354 357 360 2 3 4 6 12 8 352 357 1 5 5 3 355 354 356 352 347
160 164 168 172 170 172 172 169 167 171 176 178 172 161 157 154 141 312 324 329 329 340 349 352 354 359 1 1 6 7 15 3 353 359 3 6 10 12 7 5 9 8 6